START_TIME,STEP,MOV.,M34,t_acc.,L5,t_acc.,L18,t_acc.,L14,t_acc.
1986-01-25 15:00:26.080 ,7,0,0.,12.0,0.,12.0,0.,12.0,0.,12.0
1986-01-25 15:00:38.080 ,7,0,0.,12.0,0.,12.0,0.,12.0,1.,12.0
1986-01-25 15:00:50.080 ,6,1,0.,12.0,0.,12.0,0.,12.0,0.,12.0
1986-01-25 15:01:02.080 ,6,1,0.,12.0,0.,12.0,0.,12.0,0.,12.0
1986-01-25 15:01:14.080 ,6,0,0.,12.0,0.,12.0,0.,12.0,1.,12.0
1986-01-25 15:01:26.080 ,6,0,0.,12.0,0.,12.0,0.,12.0,0.,12.0
1986-01-25 15:01:38.080 ,5,1,0.,12.0,0.,12.0,0.,12.0,0.,12.0
1986-01-25 15:01:50.080 ,5,1,0.,12.0,0.,12.0,0.,12.0,0.,12.0
1986-01-25 15:02:02.080 ,5,0,0.,12.0,0.,12.0,0.,12.0,0.,12.0
1986-01-25 15:02:14.080 ,5,0,0.,12.0,0.,12.0,0.,12.0,1.,12.0
1986-01-25 15:02:26.080 ,4,1,0.,12.0,0.,12.0,0.,12.0,0.,12.0
1986-01-25 15:02:38.080 ,4,1,0.,12.0,0.,12.0,0.,12.0,0.,12.0
1986-01-25 15:02:50.080 ,4,0,0.,12.0,0.,12.0,0.,12.0,0.,12.0
1986-01-25 15:03:02.080 ,4,0,0.,12.0,0.,12.0,0.,12.0,0.,12.0
1986-01-25 15:03:14.080 ,3,1,0.,12.0,0.,12.0,0.,12.0,0.,12.0
1986-01-25 15:03:26.080 ,3,1,0.,12.0,0.,12.0,0.,12.0,0.,12.0
1986-01-25 15:03:38.080 ,3,0,0.,12.0,0.,12.0,0.,12.0,1.,12.0
1986-01-25 15:03:50.080 ,3,0,0.,12.0,0.,12.0,0.,12.0,0.,12.0
1986-01-25 15:04:02.080 ,2,1,0.,12.0,0.,12.0,0.,12.0,2.,12.0
1986-01-25 15:04:14.080 ,2,1,0.,12.0,0.,12.0,0.,12.0,0.,12.0
1986-01-25 15:04:26.080 ,2,0,0.,12.0,0.,12.0,0.,12.0,0.,12.0
1986-01-25 15:04:38.080 ,2,0,0.,12.0,0.,12.0,0.,12.0,0.,12.0
1986-01-25 15:04:50.080 ,1,1,0.,12.0,0.,12.0,0.,12.0,0.,12.0
1986-01-25 15:05:02.080 ,1,1,0.,12.0,0.,12.0,0.,12.0,1.,12.0
1986-01-25 15:05:14.080 ,1,0,0.,12.0,0.,12.0,0.,12.0,0.,12.0
1986-01-25 15:05:26.080 ,1,0,0.,12.0,0.,12.0,0.,12.0,0.,12.0
1986-01-25 15:05:38.080 ,0,1,0.,12.0,0.,12.0,0.,12.0,0.,12.0
1986-01-25 15:05:50.080 ,0,1,0.,12.0,0.,12.0,0.,12.0,0.,12.0
1986-01-25 15:06:02.080 ,0,0,0.,12.0,0.,12.0,0.,12.0,1.,12.0
1986-01-25 15:06:14.080 ,0,0,0.,12.0,0.,12.0,0.,12.0,0.,12.0
1986-01-25 15:06:26.080 ,0,1,0.,12.0,0.,12.0,0.,12.0,1.,12.0
1986-01-25 15:06:38.080 ,0,1,0.,12.0,0.,12.0,0.,12.0,0.,12.0
1986-01-25 15:06:50.080 ,0,0,0.,12.0,0.,12.0,0.,12.0,1.,12.0
1986-01-25 15:07:02.080 ,0,0,0.,12.0,0.,12.0,0.,12.0,0.,12.0
1986-01-25 15:07:14.080 ,1,1,0.,12.0,0.,12.0,0.,12.0,0.,12.0
1986-01-25 15:07:26.080 ,1,1,0.,12.0,0.,12.0,0.,12.0,0.,12.0
1986-01-25 15:07:38.080 ,1,0,0.,12.0,0.,12.0,0.,12.0,0.,12.0
1986-01-25 15:07:50.080 ,1,0,0.,12.0,0.,12.0,0.,12.0,0.,12.0
1986-01-25 15:08:02.080 ,2,1,0.,12.0,0.,12.0,0.,12.0,1.,12.0
1986-01-25 15:08:14.080 ,2,1,0.,12.0,0.,12.0,0.,12.0,0.,12.0
1986-01-25 15:08:26.080 ,2,0,0.,12.0,0.,12.0,0.,12.0,1.,12.0
1986-01-25 15:08:38.080 ,2,0,0.,12.0,0.,12.0,0.,12.0,0.,12.0
1986-01-25 15:08:50.080 ,3,1,0.,12.0,0.,12.0,0.,12.0,0.,12.0
1986-01-25 15:09:02.080 ,3,1,0.,12.0,0.,12.0,0.,12.0,0.,12.0
1986-01-25 15:09:14.080 ,3,0,0.,12.0,0.,12.0,0.,12.0,0.,12.0
1986-01-25 15:09:26.080 ,3,0,0.,12.0,0.,12.0,0.,12.0,0.,12.0
1986-01-25 15:09:38.080 ,4,1,0.,12.0,0.,12.0,0.,12.0,0.,12.0
1986-01-25 15:09:50.080 ,4,1,0.,12.0,0.,12.0,0.,12.0,0.,12.0
1986-01-25 15:10:02.080 ,4,0,0.,12.0,0.,12.0,0.,12.0,0.,12.0
1986-01-25 15:10:14.080 ,4,0,0.,12.0,0.,12.0,0.,12.0,0.,12.0
1986-01-25 15:10:26.080 ,5,1,0.,12.0,0.,12.0,0.,12.0,0.,12.0
1986-01-25 15:10:38.080 ,5,1,0.,12.0,0.,12.0,0.,12.0,1.,12.0
1986-01-25 15:10:50.080 ,5,0,0.,12.0,0.,12.0,0.,12.0,0.,12.0
1986-01-25 15:11:02.080 ,5,0,0.,12.0,0.,12.0,0.,12.0,0.,12.0
1986-01-25 15:11:14.080 ,6,1,0.,12.0,0.,12.0,0.,12.0,0.,12.0
1986-01-25 15:11:26.080 ,6,1,0.,12.0,0.,12.0,0.,12.0,0.,12.0
1986-01-25 15:11:38.080 ,6,0,0.,12.0,0.,12.0,0.,12.0,0.,12.0
1986-01-25 15:11:50.080 ,6,0,0.,12.0,0.,12.0,0.,12.0,0.,12.0
1986-01-25 15:12:02.080 ,7,1,0.,12.0,0.,12.0,0.,12.0,0.,12.0
1986-01-25 15:12:14.080 ,7,1,0.,12.0,0.,12.0,0.,12.0,0.,12.0
1986-01-25 15:12:26.080 ,7,0,0.,12.0,0.,12.0,0.,12.0,0.,12.0
1986-01-25 15:12:38.080 ,7,0,0.,12.0,0.,12.0,0.,12.0,0.,12.0
1986-01-25 15:12:50.080 ,7,1,0.,12.0,0.,12.0,0.,12.0,0.,12.0
1986-01-25 15:13:02.080 ,7,1,0.,12.0,0.,12.0,0.,12.0,0.,12.0
1986-01-25 15:13:14.080 ,7,0,0.,12.0,0.,12.0,0.,12.0,0.,12.0
1986-01-25 15:13:26.080 ,7,0,0.,12.0,0.,12.0,0.,12.0,0.,12.0
1986-01-25 15:13:38.080 ,6,1,0.,12.0,0.,12.0,0.,12.0,0.,12.0
1986-01-25 15:13:50.080 ,6,1,0.,12.0,0.,12.0,0.,12.0,1.,12.0
1986-01-25 15:14:02.080 ,6,0,0.,12.0,0.,12.0,0.,12.0,0.,12.0
1986-01-25 15:14:14.080 ,6,0,0.,12.0,0.,12.0,0.,12.0,0.,12.0
1986-01-25 15:14:26.080 ,5,1,0.,12.0,0.,12.0,0.,12.0,1.,12.0
1986-01-25 15:14:38.080 ,5,1,0.,12.0,0.,12.0,0.,12.0,1.,12.0
1986-01-25 15:14:50.080 ,5,0,0.,12.0,0.,12.0,0.,12.0,1.,12.0
1986-01-25 15:15:02.080 ,5,0,0.,12.0,0.,12.0,0.,12.0,0.,12.0
1986-01-25 15:15:14.080 ,4,1,0.,12.0,0.,12.0,0.,12.0,1.,12.0
1986-01-25 15:15:26.080 ,4,1,0.,12.0,0.,12.0,0.,12.0,0.,12.0
1986-01-25 15:15:38.080 ,4,0,0.,12.0,0.,12.0,0.,12.0,0.,12.0
1986-01-25 15:15:50.080 ,4,0,0.,12.0,0.,12.0,0.,12.0,0.,12.0
1986-01-25 15:16:02.080 ,3,1,0.,12.0,0.,12.0,0.,12.0,0.,12.0
1986-01-25 15:16:14.080 ,3,1,0.,12.0,0.,12.0,0.,12.0,2.,12.0
1986-01-25 15:16:26.080 ,3,0,0.,12.0,0.,12.0,0.,12.0,0.,12.0
1986-01-25 15:16:38.080 ,3,0,0.,12.0,0.,12.0,0.,12.0,0.,12.0
1986-01-25 15:16:50.080 ,2,1,0.,12.0,0.,12.0,0.,12.0,1.,12.0
1986-01-25 15:17:02.080 ,2,1,0.,12.0,0.,12.0,0.,12.0,0.,12.0
1986-01-25 15:17:14.080 ,2,0,0.,12.0,0.,12.0,0.,12.0,0.,12.0
1986-01-25 15:17:26.080 ,2,0,0.,12.0,0.,12.0,0.,12.0,0.,12.0
1986-01-25 15:17:38.080 ,1,1,0.,12.0,0.,12.0,0.,12.0,0.,12.0
1986-01-25 15:17:50.080 ,1,1,0.,12.0,0.,12.0,0.,12.0,0.,12.0
1986-01-25 15:18:02.080 ,1,0,0.,12.0,0.,12.0,0.,12.0,0.,12.0
1986-01-25 15:18:14.080 ,1,0,0.,12.0,0.,12.0,0.,12.0,0.,12.0
1986-01-25 15:18:26.080 ,0,1,0.,12.0,0.,12.0,0.,12.0,0.,12.0
1986-01-25 15:18:38.080 ,0,1,0.,12.0,0.,12.0,0.,12.0,0.,12.0
1986-01-25 15:18:50.080 ,0,0,0.,12.0,0.,12.0,0.,12.0,1.,12.0
1986-01-25 15:19:02.080 ,0,0,0.,12.0,0.,12.0,0.,12.0,1.,12.0
1986-01-25 15:19:14.080 ,0,1,0.,12.0,0.,12.0,0.,12.0,1.,12.0
1986-01-25 15:19:26.080 ,0,1,0.,12.0,0.,12.0,0.,12.0,0.,12.0
1986-01-25 15:19:38.080 ,0,0,0.,12.0,0.,12.0,0.,12.0,0.,12.0
1986-01-25 15:19:50.080 ,0,0,0.,12.0,0.,12.0,0.,12.0,1.,12.0
1986-01-25 15:20:02.080 ,1,1,0.,12.0,0.,12.0,0.,12.0,0.,12.0
1986-01-25 15:20:14.080 ,1,1,0.,12.0,0.,12.0,0.,12.0,0.,12.0
1986-01-25 15:20:26.080 ,1,0,0.,12.0,0.,12.0,0.,12.0,0.,12.0
1986-01-25 15:20:38.080 ,1,0,0.,12.0,0.,12.0,0.,12.0,0.,12.0
1986-01-25 15:20:50.080 ,2,1,0.,12.0,0.,12.0,0.,12.0,0.,12.0
1986-01-25 15:21:02.080 ,2,1,0.,12.0,0.,12.0,0.,12.0,0.,12.0
1986-01-25 15:21:14.080 ,2,0,0.,12.0,0.,12.0,0.,12.0,1.,12.0
1986-01-25 15:21:26.080 ,2,0,0.,12.0,0.,12.0,0.,12.0,0.,12.0
1986-01-25 15:21:38.080 ,3,1,0.,12.0,0.,12.0,0.,12.0,0.,12.0
1986-01-25 15:21:50.080 ,3,1,0.,12.0,0.,12.0,0.,12.0,0.,12.0
1986-01-25 15:22:02.080 ,3,0,0.,12.0,0.,12.0,0.,12.0,1.,12.0
1986-01-25 15:22:14.080 ,3,0,0.,12.0,0.,12.0,0.,12.0,0.,12.0
1986-01-25 15:22:26.080 ,4,1,0.,12.0,0.,12.0,0.,12.0,0.,12.0
1986-01-25 15:22:38.080 ,4,1,0.,12.0,0.,12.0,0.,12.0,0.,12.0
1986-01-25 15:22:50.080 ,4,0,0.,12.0,0.,12.0,0.,12.0,0.,12.0
1986-01-25 15:23:02.080 ,4,0,0.,12.0,0.,12.0,0.,12.0,0.,12.0
1986-01-25 15:23:14.080 ,5,1,0.,12.0,0.,12.0,0.,12.0,0.,12.0
1986-01-25 15:23:26.080 ,5,1,0.,12.0,0.,12.0,0.,12.0,0.,12.0
1986-01-25 15:23:38.080 ,5,0,0.,12.0,0.,12.0,0.,12.0,1.,12.0
1986-01-25 15:23:50.080 ,5,0,0.,12.0,0.,12.0,0.,12.0,1.,12.0
1986-01-25 15:24:02.080 ,6,1,0.,12.0,0.,12.0,0.,12.0,0.,12.0
1986-01-25 15:24:14.080 ,6,1,0.,12.0,0.,12.0,0.,12.0,0.,12.0
1986-01-25 15:24:26.080 ,6,0,0.,12.0,0.,12.0,0.,12.0,0.,12.0
1986-01-25 15:24:38.080 ,6,0,0.,12.0,0.,12.0,0.,12.0,0.,12.0
1986-01-25 15:24:50.080 ,7,1,0.,12.0,0.,12.0,0.,12.0,0.,12.0
1986-01-25 15:25:02.080 ,7,1,0.,12.0,0.,12.0,0.,12.0,0.,12.0
1986-01-25 15:25:14.080 ,7,0,0.,12.0,0.,12.0,0.,12.0,1.,12.0
1986-01-25 15:25:26.080 ,7,0,0.,12.0,0.,12.0,0.,12.0,1.,12.0
1986-01-25 15:25:38.080 ,7,1,0.,12.0,0.,12.0,0.,12.0,0.,12.0
1986-01-25 15:25:50.080 ,7,1,0.,12.0,0.,12.0,0.,12.0,0.,12.0
1986-01-25 15:26:02.080 ,7,0,0.,12.0,0.,12.0,0.,12.0,0.,12.0
1986-01-25 15:26:14.080 ,7,0,0.,12.0,0.,12.0,0.,12.0,0.,12.0
1986-01-25 15:26:26.080 ,6,1,0.,12.0,0.,12.0,0.,12.0,0.,12.0
1986-01-25 15:26:38.080 ,6,1,0.,12.0,0.,12.0,0.,12.0,0.,12.0
1986-01-25 15:26:50.080 ,6,0,0.,12.0,0.,12.0,0.,12.0,0.,12.0
1986-01-25 15:27:02.080 ,6,0,0.,12.0,0.,12.0,0.,12.0,0.,12.0
1986-01-25 15:27:14.080 ,5,1,0.,12.0,0.,12.0,0.,12.0,0.,12.0
1986-01-25 15:27:26.080 ,5,1,0.,12.0,0.,12.0,0.,12.0,0.,12.0
1986-01-25 15:27:38.080 ,5,0,0.,12.0,0.,12.0,0.,12.0,0.,12.0
1986-01-25 15:27:50.080 ,5,0,0.,12.0,0.,12.0,0.,12.0,0.,12.0
1986-01-25 15:28:02.080 ,4,1,0.,12.0,0.,12.0,0.,12.0,0.,12.0
1986-01-25 15:28:14.080 ,4,1,0.,12.0,0.,12.0,0.,12.0,0.,12.0
1986-01-25 15:28:26.080 ,4,0,0.,12.0,0.,12.0,0.,12.0,0.,12.0
1986-01-25 15:28:38.080 ,4,0,0.,12.0,0.,12.0,0.,12.0,0.,12.0
1986-01-25 15:28:50.080 ,3,1,0.,12.0,0.,12.0,0.,12.0,0.,12.0
1986-01-25 15:29:02.080 ,3,1,0.,12.0,0.,12.0,0.,12.0,1.,12.0
1986-01-25 15:29:14.080 ,3,0,0.,12.0,0.,12.0,0.,12.0,0.,12.0
1986-01-25 15:29:26.080 ,3,0,0.,12.0,0.,12.0,0.,12.0,1.,12.0
1986-01-25 15:29:38.080 ,2,1,0.,12.0,0.,12.0,0.,12.0,0.,12.0
1986-01-25 15:29:50.080 ,2,1,0.,12.0,0.,12.0,0.,12.0,0.,12.0
1986-01-25 15:30:02.080 ,2,0,0.,12.0,0.,12.0,0.,12.0,1.,12.0
1986-01-25 15:30:14.080 ,2,0,0.,12.0,0.,12.0,0.,12.0,0.,12.0
1986-01-25 15:30:26.080 ,1,1,0.,12.0,0.,12.0,0.,12.0,0.,12.0
1986-01-25 15:30:38.080 ,1,1,0.,12.0,0.,12.0,0.,12.0,1.,12.0
1986-01-25 15:30:50.080 ,1,0,0.,12.0,0.,12.0,0.,12.0,0.,12.0
1986-01-25 15:31:02.080 ,1,0,0.,12.0,0.,12.0,0.,12.0,0.,12.0
1986-01-25 15:31:14.080 ,0,1,0.,12.0,0.,12.0,0.,12.0,0.,12.0
1986-01-25 15:31:26.080 ,0,1,0.,12.0,0.,12.0,0.,12.0,0.,12.0
1986-01-25 15:31:38.080 ,0,0,0.,12.0,0.,12.0,0.,12.0,0.,12.0
1986-01-25 15:31:50.080 ,0,0,0.,12.0,0.,12.0,0.,12.0,2.,12.0
1986-01-25 15:32:02.080 ,0,1,0.,12.0,0.,12.0,0.,12.0,0.,12.0
1986-01-25 15:32:14.080 ,0,1,0.,12.0,0.,12.0,0.,12.0,1.,12.0
1986-01-25 15:32:26.080 ,0,0,0.,12.0,0.,12.0,0.,12.0,0.,12.0
1986-01-25 15:32:38.080 ,0,0,0.,12.0,0.,12.0,0.,12.0,0.,12.0
1986-01-25 15:32:50.080 ,1,1,0.,12.0,0.,12.0,0.,12.0,1.,12.0
1986-01-25 15:33:02.080 ,1,1,0.,12.0,0.,12.0,0.,12.0,1.,12.0
1986-01-25 15:33:14.080 ,1,0,0.,12.0,0.,12.0,0.,12.0,0.,12.0
1986-01-25 15:33:26.080 ,1,0,0.,12.0,0.,12.0,0.,12.0,0.,12.0
1986-01-25 15:33:38.080 ,2,1,0.,12.0,0.,12.0,0.,12.0,0.,12.0
1986-01-25 15:33:50.080 ,2,1,0.,12.0,0.,12.0,0.,12.0,0.,12.0
1986-01-25 15:34:02.080 ,2,0,0.,12.0,0.,12.0,0.,12.0,0.,12.0
1986-01-25 15:34:14.080 ,2,0,0.,12.0,0.,12.0,0.,12.0,0.,12.0
1986-01-25 15:34:26.080 ,3,1,0.,12.0,0.,12.0,0.,12.0,0.,12.0
1986-01-25 15:34:38.080 ,3,1,0.,12.0,0.,12.0,0.,12.0,0.,12.0
1986-01-25 15:34:50.080 ,3,0,0.,12.0,0.,12.0,0.,12.0,0.,12.0
1986-01-25 15:35:02.080 ,3,0,0.,12.0,0.,12.0,0.,12.0,1.,12.0
1986-01-25 15:35:14.080 ,4,1,0.,12.0,0.,12.0,0.,12.0,0.,12.0
1986-01-25 15:35:26.080 ,4,1,0.,12.0,0.,12.0,0.,12.0,0.,12.0
1986-01-25 15:35:38.080 ,4,0,0.,12.0,0.,12.0,0.,12.0,0.,12.0
1986-01-25 15:35:50.080 ,4,0,0.,12.0,0.,12.0,0.,12.0,0.,12.0
1986-01-25 15:36:02.080 ,5,1,0.,12.0,0.,12.0,0.,12.0,1.,12.0
1986-01-25 15:36:14.080 ,5,1,0.,12.0,0.,12.0,0.,12.0,0.,12.0
1986-01-25 15:36:26.080 ,5,0,0.,12.0,0.,12.0,0.,12.0,0.,12.0
1986-01-25 15:36:38.080 ,5,0,0.,12.0,0.,12.0,0.,12.0,0.,12.0
1986-01-25 15:36:50.080 ,6,1,0.,12.0,0.,12.0,0.,12.0,0.,12.0
1986-01-25 15:37:02.080 ,6,1,0.,12.0,0.,12.0,0.,12.0,0.,12.0
1986-01-25 15:37:14.080 ,6,0,0.,12.0,0.,12.0,0.,12.0,0.,12.0
1986-01-25 15:37:26.080 ,6,0,0.,12.0,0.,12.0,0.,12.0,0.,12.0
1986-01-25 15:37:38.080 ,7,1,0.,12.0,0.,12.0,0.,12.0,0.,12.0
1986-01-25 15:37:50.080 ,7,1,0.,12.0,0.,12.0,0.,12.0,1.,12.0
1986-01-25 15:38:02.080 ,7,0,0.,12.0,0.,12.0,0.,12.0,0.,12.0
1986-01-25 15:38:14.080 ,7,0,0.,12.0,0.,12.0,0.,12.0,1.,12.0
1986-01-25 15:38:26.080 ,7,1,0.,12.0,0.,12.0,0.,12.0,0.,12.0
1986-01-25 15:38:38.080 ,7,1,0.,12.0,0.,12.0,0.,12.0,0.,12.0
1986-01-25 15:38:50.080 ,7,0,0.,12.0,0.,12.0,0.,12.0,1.,12.0
1986-01-25 15:39:02.080 ,7,0,0.,12.0,0.,12.0,0.,12.0,1.,12.0
1986-01-25 15:39:14.080 ,6,1,0.,12.0,0.,12.0,0.,12.0,0.,12.0
1986-01-25 15:39:26.080 ,6,1,0.,12.0,0.,12.0,0.,12.0,0.,12.0
1986-01-25 15:39:38.080 ,6,0,0.,12.0,0.,12.0,0.,12.0,0.,12.0
1986-01-25 15:39:50.080 ,6,0,0.,12.0,0.,12.0,0.,12.0,0.,12.0
1986-01-25 15:40:02.080 ,5,1,0.,12.0,0.,12.0,0.,12.0,1.,12.0
1986-01-25 15:40:14.080 ,5,1,0.,12.0,0.,12.0,0.,12.0,0.,12.0
1986-01-25 15:40:26.080 ,5,0,0.,12.0,0.,12.0,0.,12.0,0.,12.0
1986-01-25 15:40:38.080 ,5,0,0.,12.0,0.,12.0,0.,12.0,0.,12.0
1986-01-25 15:40:50.080 ,4,1,0.,12.0,0.,12.0,0.,12.0,0.,12.0
1986-01-25 15:41:02.080 ,4,1,0.,12.0,0.,12.0,0.,12.0,1.,12.0
1986-01-25 15:41:14.080 ,4,0,0.,12.0,0.,12.0,0.,12.0,2.,12.0
1986-01-25 15:41:26.080 ,4,0,0.,12.0,0.,12.0,0.,12.0,0.,12.0
1986-01-25 15:41:38.080 ,3,1,0.,12.0,0.,12.0,0.,12.0,0.,12.0
1986-01-25 15:41:50.080 ,3,1,0.,12.0,0.,12.0,0.,12.0,0.,12.0
1986-01-25 15:42:02.080 ,3,0,0.,12.0,0.,12.0,0.,12.0,0.,12.0
1986-01-25 15:42:14.080 ,3,0,0.,12.0,0.,12.0,0.,12.0,0.,12.0
1986-01-25 15:42:26.080 ,2,1,0.,12.0,0.,12.0,0.,12.0,0.,12.0
1986-01-25 15:42:38.080 ,2,1,0.,12.0,0.,12.0,0.,12.0,0.,12.0
1986-01-25 15:42:50.080 ,2,0,0.,12.0,0.,12.0,0.,12.0,2.,12.0
1986-01-25 15:43:02.080 ,2,0,0.,12.0,0.,12.0,0.,12.0,1.,12.0
1986-01-25 15:43:14.080 ,1,1,0.,12.0,0.,12.0,0.,12.0,0.,12.0
1986-01-25 15:43:26.080 ,1,1,0.,12.0,0.,12.0,0.,12.0,0.,12.0
1986-01-25 15:43:38.080 ,1,0,0.,12.0,0.,12.0,0.,12.0,2.,12.0
1986-01-25 15:43:50.080 ,1,0,0.,12.0,0.,12.0,0.,12.0,0.,12.0
1986-01-25 15:44:02.080 ,0,1,0.,12.0,0.,12.0,0.,12.0,0.,12.0
1986-01-25 15:44:14.080 ,0,1,0.,12.0,0.,12.0,0.,12.0,0.,12.0
1986-01-25 15:44:26.080 ,0,0,0.,12.0,0.,12.0,0.,12.0,0.,12.0
1986-01-25 15:44:38.080 ,0,0,0.,12.0,0.,12.0,0.,12.0,0.,12.0
1986-01-25 15:44:50.080 ,0,1,0.,12.0,0.,12.0,0.,12.0,0.,12.0
1986-01-25 15:45:02.080 ,0,1,0.,12.0,0.,12.0,0.,12.0,0.,12.0
1986-01-25 15:45:14.080 ,0,0,0.,12.0,0.,12.0,0.,12.0,0.,12.0
1986-01-25 15:45:26.080 ,0,0,0.,12.0,0.,12.0,0.,12.0,2.,12.0
1986-01-25 15:45:38.080 ,1,1,0.,12.0,0.,12.0,0.,12.0,0.,12.0
1986-01-25 15:45:50.080 ,1,1,0.,12.0,0.,12.0,0.,12.0,0.,12.0
1986-01-25 15:46:02.080 ,1,0,0.,12.0,0.,12.0,0.,12.0,0.,12.0
1986-01-25 15:46:14.080 ,1,0,0.,12.0,0.,12.0,0.,12.0,0.,12.0
1986-01-25 15:46:26.080 ,2,1,0.,12.0,0.,12.0,0.,12.0,0.,12.0
1986-01-25 15:46:38.080 ,2,1,0.,12.0,0.,12.0,0.,12.0,0.,12.0
1986-01-25 15:46:50.080 ,2,0,0.,12.0,0.,12.0,0.,12.0,0.,12.0
1986-01-25 15:47:02.080 ,2,0,0.,12.0,0.,12.0,0.,12.0,1.,12.0
1986-01-25 15:47:14.080 ,3,1,0.,12.0,0.,12.0,0.,12.0,1.,12.0
1986-01-25 15:47:26.080 ,3,1,0.,12.0,0.,12.0,0.,12.0,0.,12.0
1986-01-25 15:47:38.080 ,3,0,0.,12.0,0.,12.0,0.,12.0,0.,12.0
1986-01-25 15:47:50.080 ,3,0,0.,12.0,0.,12.0,0.,12.0,0.,12.0
1986-01-25 15:48:02.070 ,4,1,0.,12.0,0.,12.0,0.,12.0,0.,12.0
1986-01-25 15:48:14.070 ,4,1,0.,12.0,0.,12.0,0.,12.0,0.,12.0
1986-01-25 15:48:26.070 ,4,0,0.,12.0,0.,12.0,0.,12.0,0.,12.0
1986-01-25 15:48:38.070 ,4,0,0.,12.0,0.,12.0,0.,12.0,1.,12.0
1986-01-25 15:48:50.070 ,5,1,0.,12.0,0.,12.0,0.,12.0,0.,12.0
1986-01-25 15:49:02.070 ,5,1,0.,12.0,0.,12.0,0.,12.0,0.,12.0
1986-01-25 15:49:14.070 ,5,0,0.,12.0,0.,12.0,0.,12.0,0.,12.0
1986-01-25 15:49:26.070 ,5,0,0.,12.0,0.,12.0,0.,12.0,0.,12.0
1986-01-25 15:49:38.070 ,6,1,0.,12.0,0.,12.0,0.,12.0,0.,12.0
1986-01-25 15:49:50.070 ,6,1,0.,12.0,0.,12.0,0.,12.0,0.,12.0
1986-01-25 15:50:02.070 ,6,0,0.,12.0,0.,12.0,0.,12.0,0.,12.0
1986-01-25 15:50:14.070 ,6,0,0.,12.0,0.,12.0,0.,12.0,1.,12.0
1986-01-25 15:50:26.070 ,7,1,0.,12.0,0.,12.0,0.,12.0,0.,12.0
1986-01-25 15:50:38.070 ,7,1,0.,12.0,0.,12.0,0.,12.0,1.,12.0
1986-01-25 15:50:50.070 ,7,0,0.,12.0,0.,12.0,0.,12.0,0.,12.0
1986-01-25 15:51:02.070 ,7,0,0.,12.0,0.,12.0,0.,12.0,0.,12.0
1986-01-25 15:51:14.070 ,7,1,0.,12.0,0.,12.0,0.,12.0,0.,12.0
1986-01-25 15:51:26.070 ,7,1,0.,12.0,0.,12.0,0.,12.0,0.,12.0
1986-01-25 15:51:38.070 ,7,0,0.,12.0,0.,12.0,0.,12.0,0.,12.0
1986-01-25 15:51:50.070 ,7,0,0.,12.0,0.,12.0,0.,12.0,0.,12.0
1986-01-25 15:52:02.070 ,6,1,0.,12.0,0.,12.0,0.,12.0,0.,12.0
1986-01-25 15:52:14.070 ,6,1,0.,12.0,0.,12.0,0.,12.0,0.,12.0
1986-01-25 15:52:26.070 ,6,0,0.,12.0,0.,12.0,0.,12.0,0.,12.0
1986-01-25 15:52:38.070 ,6,0,0.,12.0,0.,12.0,0.,12.0,1.,12.0
1986-01-25 15:52:50.070 ,5,1,0.,12.0,0.,12.0,0.,12.0,0.,12.0
1986-01-25 15:53:02.070 ,5,1,0.,12.0,0.,12.0,0.,12.0,1.,12.0
1986-01-25 15:53:14.070 ,5,0,0.,12.0,0.,12.0,0.,12.0,1.,12.0
1986-01-25 15:53:26.070 ,5,0,0.,12.0,0.,12.0,0.,12.0,0.,12.0
1986-01-25 15:53:38.070 ,4,1,0.,12.0,0.,12.0,0.,12.0,0.,12.0
1986-01-25 15:53:50.070 ,4,1,0.,12.0,0.,12.0,0.,12.0,0.,12.0
1986-01-25 15:54:02.070 ,4,0,0.,12.0,0.,12.0,0.,12.0,0.,12.0
1986-01-25 15:54:14.070 ,4,0,0.,12.0,0.,12.0,0.,12.0,0.,12.0
1986-01-25 15:54:26.070 ,3,1,0.,12.0,0.,12.0,0.,12.0,0.,12.0
1986-01-25 15:54:38.070 ,3,1,0.,12.0,0.,12.0,0.,12.0,0.,12.0
1986-01-25 15:54:50.070 ,3,0,0.,12.0,0.,12.0,0.,12.0,1.,12.0
1986-01-25 15:55:02.070 ,3,0,0.,12.0,0.,12.0,0.,12.0,0.,12.0
1986-01-25 15:55:14.070 ,2,1,0.,12.0,0.,12.0,0.,12.0,0.,12.0
1986-01-25 15:55:26.070 ,2,1,0.,12.0,0.,12.0,0.,12.0,0.,12.0
1986-01-25 15:55:38.070 ,2,0,0.,12.0,0.,12.0,0.,12.0,0.,12.0
1986-01-25 15:55:50.070 ,2,0,0.,12.0,0.,12.0,0.,12.0,0.,12.0
1986-01-25 15:56:02.070 ,1,1,0.,12.0,0.,12.0,0.,12.0,1.,12.0
1986-01-25 15:56:14.070 ,1,1,0.,12.0,0.,12.0,0.,12.0,0.,12.0
1986-01-25 15:56:26.070 ,1,0,0.,12.0,0.,12.0,0.,12.0,0.,12.0
1986-01-25 15:56:38.070 ,1,0,0.,12.0,0.,12.0,0.,12.0,0.,12.0
1986-01-25 15:56:50.070 ,0,1,0.,12.0,0.,12.0,0.,12.0,0.,12.0
1986-01-25 15:57:02.070 ,0,1,0.,12.0,0.,12.0,0.,12.0,0.,12.0
1986-01-25 15:57:14.070 ,0,0,0.,12.0,0.,12.0,0.,12.0,0.,12.0
1986-01-25 15:57:26.070 ,0,0,0.,12.0,0.,12.0,0.,12.0,1.,12.0
1986-01-25 15:57:38.070 ,0,1,0.,12.0,0.,12.0,0.,12.0,0.,12.0
1986-01-25 15:57:50.070 ,0,1,0.,12.0,0.,12.0,0.,12.0,0.,12.0
1986-01-25 15:58:02.070 ,0,0,0.,12.0,0.,12.0,0.,12.0,0.,12.0
1986-01-25 15:58:14.070 ,0,0,0.,12.0,0.,12.0,0.,12.0,0.,12.0
1986-01-25 15:58:26.070 ,1,1,0.,12.0,0.,12.0,0.,12.0,0.,12.0
1986-01-25 15:58:38.070 ,1,1,0.,12.0,0.,12.0,0.,12.0,0.,12.0
1986-01-25 15:58:50.070 ,1,0,0.,12.0,0.,12.0,0.,12.0,0.,12.0
1986-01-25 15:59:02.070 ,1,0,0.,12.0,0.,12.0,0.,12.0,0.,12.0
1986-01-25 15:59:14.070 ,2,1,0.,12.0,0.,12.0,0.,12.0,0.,12.0
1986-01-25 15:59:26.070 ,2,1,0.,12.0,0.,12.0,0.,12.0,0.,12.0
1986-01-25 15:59:38.070 ,2,0,0.,12.0,0.,12.0,0.,12.0,0.,12.0
1986-01-25 15:59:50.070 ,2,0,0.,12.0,0.,12.0,0.,12.0,0.,12.0
1986-01-25 16:00:02.080 ,3,1,0.,12.0,0.,12.0,0.,12.0,0.,12.0
1986-01-25 16:00:14.080 ,3,1,0.,12.0,0.,12.0,0.,12.0,0.,12.0
1986-01-25 16:00:26.080 ,3,0,0.,12.0,0.,12.0,0.,12.0,0.,12.0
1986-01-25 16:00:38.080 ,3,0,0.,12.0,0.,12.0,0.,12.0,0.,12.0
1986-01-25 16:00:50.080 ,4,1,0.,12.0,0.,12.0,0.,12.0,0.,12.0
1986-01-25 16:01:02.080 ,4,1,0.,12.0,0.,12.0,0.,12.0,0.,12.0
1986-01-25 16:01:14.070 ,4,0,0.,12.0,0.,12.0,0.,12.0,1.,12.0
1986-01-25 16:01:26.080 ,4,0,0.,12.0,0.,12.0,0.,12.0,0.,12.0
1986-01-25 16:01:38.070 ,5,1,0.,12.0,0.,12.0,0.,12.0,0.,12.0
1986-01-25 16:01:50.080 ,5,1,0.,12.0,0.,12.0,0.,12.0,0.,12.0
1986-01-25 16:02:02.080 ,5,0,0.,12.0,0.,12.0,0.,12.0,0.,12.0
1986-01-25 16:02:14.070 ,5,0,0.,12.0,0.,12.0,0.,12.0,0.,12.0
1986-01-25 16:02:26.070 ,6,1,0.,12.0,0.,12.0,0.,12.0,1.,12.0
1986-01-25 16:02:38.070 ,6,1,0.,12.0,0.,12.0,0.,12.0,0.,12.0
1986-01-25 16:02:50.070 ,6,0,0.,12.0,0.,12.0,0.,12.0,0.,12.0
1986-01-25 16:03:02.070 ,6,0,0.,12.0,0.,12.0,0.,12.0,0.,12.0
1986-01-25 16:03:14.070 ,7,1,0.,12.0,0.,12.0,0.,12.0,0.,12.0
1986-01-25 16:03:26.070 ,7,1,0.,12.0,0.,12.0,0.,12.0,1.,12.0
1986-01-25 16:03:38.070 ,0,0,0.,12.0,0.,12.0,0.,12.0,0.,12.0
1986-01-25 16:03:50.070 ,0,0,0.,12.0,0.,12.0,0.,12.0,0.,12.0
1986-01-25 16:04:36.270 ,0,0,,0,,0,,0,,0
1986-01-25 16:04:48.270 ,0,0,0.,12.0,0.,12.0,0.,12.0,0.,12.0
1986-01-25 16:05:41.670 ,0,0,,0,,0,,0,,0
1986-01-25 16:05:53.670 ,0,0,,0,,0,,0,,0
1986-01-25 16:06:02.070 ,0,0,0.,12.0,0.,12.0,0.,12.0,0.,12.0
1986-01-25 16:06:14.070 ,0,0,0.,12.0,0.,12.0,0.,12.0,0.,12.0
1986-01-25 16:06:26.070 ,4,1,0.,12.0,0.,12.0,0.,12.0,1.,12.0
1986-01-25 16:06:38.070 ,4,1,0.,12.0,0.,12.0,0.,12.0,0.,12.0
1986-01-25 16:06:50.070 ,4,0,0.,12.0,0.,12.0,0.,12.0,0.,12.0
1986-01-25 16:07:02.070 ,4,0,0.,12.0,0.,12.0,0.,12.0,0.,12.0
1986-01-25 16:07:14.070 ,3,1,0.,12.0,0.,12.0,0.,12.0,0.,12.0
1986-01-25 16:07:26.070 ,3,1,0.,12.0,0.,12.0,0.,12.0,0.,12.0
1986-01-25 16:07:38.070 ,3,0,0.,12.0,0.,12.0,0.,12.0,0.,12.0
1986-01-25 16:07:50.070 ,3,0,0.,12.0,0.,12.0,0.,12.0,0.,12.0
1986-01-25 16:08:02.070 ,2,1,0.,12.0,0.,12.0,0.,12.0,0.,12.0
1986-01-25 16:08:14.070 ,2,1,0.,12.0,0.,12.0,0.,12.0,0.,12.0
1986-01-25 16:08:26.070 ,2,0,0.,12.0,0.,12.0,0.,12.0,0.,12.0
1986-01-25 16:08:38.070 ,2,0,0.,12.0,0.,12.0,0.,12.0,0.,12.0
1986-01-25 16:08:50.070 ,1,1,0.,12.0,0.,12.0,0.,12.0,0.,12.0
1986-01-25 16:09:02.070 ,1,1,0.,12.0,0.,12.0,0.,12.0,0.,12.0
1986-01-25 16:09:14.070 ,1,0,0.,12.0,0.,12.0,0.,12.0,0.,12.0
1986-01-25 16:09:26.070 ,1,0,0.,12.0,0.,12.0,0.,12.0,0.,12.0
1986-01-25 16:09:38.070 ,0,1,0.,12.0,0.,12.0,0.,12.0,1.,12.0
1986-01-25 16:09:50.070 ,0,1,0.,12.0,0.,12.0,0.,12.0,0.,12.0
1986-01-25 16:10:02.070 ,0,0,0.,12.0,0.,12.0,0.,12.0,1.,12.0
1986-01-25 16:10:14.070 ,0,0,0.,12.0,0.,12.0,0.,12.0,0.,12.0
1986-01-25 16:10:26.070 ,0,1,0.,12.0,0.,12.0,0.,12.0,0.,12.0
1986-01-25 16:10:38.070 ,0,1,0.,12.0,0.,12.0,0.,12.0,0.,12.0
1986-01-25 16:10:50.070 ,0,0,0.,12.0,0.,12.0,0.,12.0,0.,12.0
1986-01-25 16:11:02.070 ,0,0,0.,12.0,0.,12.0,0.,12.0,0.,12.0
1986-01-25 16:11:14.070 ,1,1,0.,12.0,0.,12.0,0.,12.0,0.,12.0
1986-01-25 16:11:26.070 ,1,1,0.,12.0,0.,12.0,0.,12.0,0.,12.0
1986-01-25 16:11:38.070 ,1,0,0.,12.0,0.,12.0,0.,12.0,0.,12.0
1986-01-25 16:11:50.070 ,1,0,0.,12.0,0.,12.0,0.,12.0,0.,12.0
1986-01-25 16:12:02.070 ,2,1,0.,12.0,0.,12.0,0.,12.0,0.,12.0
1986-01-25 16:12:14.070 ,2,1,0.,12.0,0.,12.0,0.,12.0,0.,12.0
1986-01-25 16:12:26.070 ,2,0,0.,12.0,0.,12.0,0.,12.0,0.,12.0
1986-01-25 16:12:38.070 ,2,0,0.,12.0,0.,12.0,0.,12.0,0.,12.0
1986-01-25 16:12:50.070 ,3,1,0.,12.0,0.,12.0,0.,12.0,0.,12.0
1986-01-25 16:13:02.070 ,3,1,0.,12.0,0.,12.0,0.,12.0,0.,12.0
1986-01-25 16:13:14.070 ,0,0,0.,12.0,0.,12.0,0.,12.0,0.,12.0
1986-01-25 16:13:26.070 ,0,0,,0,,0,,0,,0
1986-01-25 16:13:40.470 ,0,0,,0,,0,,0,,0
1986-01-25 16:13:52.470 ,0,0,,0,,0,,0,,0
1986-01-25 16:14:02.070 ,0,0,0.,12.0,0.,12.0,0.,12.0,0.,12.0
1986-01-25 16:14:14.070 ,0,0,,0,,0,,0,,0
1986-01-25 16:14:26.070 ,5,1,0.,12.0,0.,12.0,0.,12.0,2.,12.0
1986-01-25 16:14:38.070 ,5,1,0.,12.0,0.,12.0,0.,12.0,0.,12.0
1986-01-25 16:14:50.070 ,5,0,0.,12.0,0.,12.0,0.,12.0,0.,12.0
1986-01-25 16:15:02.070 ,5,0,0.,12.0,0.,12.0,0.,12.0,0.,12.0
1986-01-25 16:15:14.070 ,6,1,0.,12.0,0.,12.0,0.,12.0,1.,12.0
1986-01-25 16:15:26.070 ,6,1,0.,12.0,0.,12.0,0.,12.0,0.,12.0
1986-01-25 16:15:38.070 ,0,0,0.,12.0,0.,12.0,0.,12.0,1.,12.0
1986-01-25 16:15:50.070 ,0,0,0.,12.0,0.,12.0,0.,12.0,0.,12.0
1986-01-25 16:16:05.070 ,0,0,,0,,0,,0,,0
1986-01-25 16:16:17.070 ,0,0,,0,,0,,0,,0
1986-01-25 16:16:26.070 ,0,0,0.,12.0,0.,12.0,0.,12.0,0.,12.0
1986-01-25 16:16:38.070 ,0,0,0.,12.0,0.,12.0,0.,12.0,0.,12.0
1986-01-25 16:16:50.070 ,7,1,0.,12.0,0.,12.0,0.,12.0,0.,12.0
1986-01-25 16:17:02.070 ,7,1,0.,12.0,0.,12.0,0.,12.0,1.,12.0
1986-01-25 16:17:14.070 ,7,0,0.,12.0,0.,12.0,0.,12.0,0.,12.0
1986-01-25 16:17:26.070 ,7,0,0.,12.0,0.,12.0,0.,12.0,0.,12.0
1986-01-25 16:17:38.070 ,6,1,0.,12.0,0.,12.0,0.,12.0,0.,12.0
1986-01-25 16:17:50.070 ,6,1,0.,12.0,0.,12.0,0.,12.0,0.,12.0
1986-01-25 16:18:02.070 ,6,0,0.,12.0,0.,12.0,0.,12.0,0.,12.0
1986-01-25 16:18:14.070 ,6,0,0.,12.0,0.,12.0,0.,12.0,1.,12.0
1986-01-25 16:18:26.070 ,5,1,0.,12.0,0.,12.0,0.,12.0,0.,12.0
1986-01-25 16:18:38.070 ,5,1,0.,12.0,0.,12.0,0.,12.0,0.,12.0
1986-01-25 16:18:50.070 ,5,0,0.,12.0,0.,12.0,0.,12.0,0.,12.0
1986-01-25 16:19:02.070 ,5,0,0.,12.0,0.,12.0,0.,12.0,0.,12.0